Location: Salillas
(41.9950°N, 0.2228°W)
Time: 07:47:21
(UTC+00:00)

CZ-2C R/B - Pass Details

Date: 29 March 2020
Orbit: 785 x 870 km, 98.3° (Epoch: 03 June)

Event Time Altitude Azimuth Distance (km) Brightness Sun altitude
Rises 21:02:23 0° 6° (N) 3,299 6.2 -28.2°
Reaches altitude 10° 21:04:49 10° 359° (N) 2,359 5.4 -28.6°
Maximum altitude 21:09:40 41° 290° (WNW) 1,123 3.7 -29.3°
Enters shadow 21:13:58 13° 224° (SW) 2,155 4.8 -29.9°
